Overview Statistics Trail Chart Weather Telemetry Raw packets
 

This is the latest recevied weather packets stored in our database for station/object ED1ZAI-14. If no packets are shown the sender has not sent any weather packets the latest 10 day(s).

<< 5 6 7 8 9 10 11 >>
Time Temp. Humidity Pressure Rain* Wind** Luminosity Snow
1788309256 15° C 100% 815.5 hPa - - - -
1788307455 15° C 100% 815.4 hPa - - - -
1788305655 15° C 99% 815.6 hPa - - - -
1788303855 15° C 96% 815.5 hPa - - - -
1788302055 15° C 78% 815.3 hPa - - - -
1788300255 15° C 59% 815.4 hPa - - - -
1788298455 15° C 46% 815.5 hPa - - - -
1788296666 15.56° C 43% 815.4 hPa - - - -
1788294855 16.67° C 41% 815.1 hPa - - - -
1788293055 16.11° C 40% 814.8 hPa - - - -
1788291255 16.11° C 42% 814.6 hPa - - - -
1788289455 16.11° C 44% 814.2 hPa - - - -
1788287655 17.22° C 41% 814 hPa - - - -
1788285857 18.89° C 34% 813.8 hPa - - - -
1788284062 20° C 33% 813.8 hPa - - - -
1788282262 21.67° C 29% 813.7 hPa - - - -
1788280462 22.22° C 27% 813.8 hPa - - - -
1788278662 22.78° C 26% 813.7 hPa - - - -
1788276862 21.67° C 25% 813.7 hPa - - - -
1788275065 23.89° C 25% 813.6 hPa - - - -
1788273262 24.44° C 26% 813.7 hPa - - - -
1788271462 24.44° C 28% 813.6 hPa - - - -
1788269662 23.33° C 30% 813.7 hPa - - - -
1788267862 23.89° C 30% 813.7 hPa - - - -
1788266062 23.89° C 31% 813.8 hPa - - - -

* Rain since midnight (hover to see other rain measurements)
** Current wind speed in m/s (hover to see current wind gust speed)